AB5KT-1 Weather Reports


Display with metric or nautical units.
time (UTC)temp
F
wind
direction
speed
MPH
gust
MPH
rain 1hr
in
rain 24hr
in
rain mn
in
humidity
%
barometer
mb
20260502222247 76 159 4.0 9.0 0.00 0.00 0.00 37 1020.0
20260502221744 77 347 4.0 9.0 0.00 0.00 0.00 36 1020.1
20260502221249 76 54 4.0 10.0 0.00 0.00 0.00 38 1020.0
20260502221245 76 130 4.0 10.0 0.00 0.00 0.00 38 1020.0
20260502220249 77 15 5.0 11.0 0.00 0.00 0.00 36 1020.1
20260502220245 76 34 4.0 11.0 0.00 0.00 0.00 38 1020.0
20260502215245 76 126 4.0 13.0 0.00 0.00 0.00 36 1020.1
20260502214742 76 0 4.0 13.0 0.00 0.00 0.00 38 1020.1
20260502214243 76 51 3.0 9.0 0.00 0.00 0.00 38 1020.1
20260502213741 76 16 2.0 7.0 0.00 0.00 0.00 39 1020.1
20260502213239 76 85 3.0 9.0 0.00 0.00 0.00 37 1020.1
20260502212737 76 346 5.0 9.0 0.00 0.00 0.00 38 1020.3
20260502212236 76 24 5.0 11.0 0.00 0.00 0.00 39 1020.3
20260502211735 76 11 4.0 12.0 0.00 0.00 0.00 39 1020.4
20260502211234 75 40 5.0 12.0 0.00 0.00 0.00 39 1020.5
20260502210735 76 12 6.0 12.0 0.00 0.00 0.00 37 1020.7
20260502210235 75 15 4.0 12.0 0.00 0.00 0.00 38 1020.6
20260502205734 75 36 4.0 12.0 0.00 0.00 0.00 40 1020.7
20260502205239 76 325 4.0 11.0 0.00 0.00 0.00 41 1020.9
20260502205235 76 269 5.0 11.0 0.00 0.00 0.00 42 1020.8
20260502204235 75 40 3.0 10.0 0.00 0.00 0.00 40 1020.9
20260502203735 75 103 5.0 10.0 0.00 0.00 0.00 40 1020.9
20260502203235 76 113 5.0 12.0 0.00 0.00 0.00 41 1021.2
20260502202735 75 106 5.0 12.0 0.00 0.00 0.00 42 1021.1
20260502202235 75 136 6.0 15.0 0.00 0.00 0.00 40 1021.2
20260502201735 75 40 6.0 15.0 0.00 0.00 0.00 39 1021.2
20260502201235 75 53 5.0 12.0 0.00 0.00 0.00 43 1021.2
20260502200734 74 28 4.0 12.0 0.00 0.00 0.00 41 1021.3
20260502200233 75 12 5.0 15.0 0.00 0.00 0.00 42 1021.3
20260502195733 75 41 5.0 15.0 0.00 0.00 0.00 40 1021.4
20260502195233 75 28 4.0 13.0 0.00 0.00 0.00 40 1021.5
20260502194731 75 44 4.0 13.0 0.00 0.00 0.00 43 1021.3
20260502194230 74 62 6.0 18.0 0.00 0.00 0.00 43 1021.5
20260502193731 73 123 6.0 18.0 0.00 0.00 0.00 42 1021.5
20260502193231 73 19 5.0 15.0 0.00 0.00 0.00 42 1021.4
20260502192730 73 302 5.0 15.0 0.00 0.00 0.00 46 1021.5
20260502192229 73 32 6.0 15.0 0.00 0.00 0.00 44 1021.5
20260502191729 73 74 7.0 15.0 0.00 0.00 0.00 42 1021.5
20260502191332 73 44 5.0 14.0 0.00 0.00 0.00 46 1021.8
20260502191229 73 16 5.0 12.0 0.00 0.00 0.00 44 1021.5
20260502190731 73 57 5.0 11.0 0.00 0.00 0.00 45 1021.7
20260502190727 73 25 4.0 11.0 0.00 0.00 0.00 45 1021.7
20260502185725 73 57 4.0 14.0 0.00 0.00 0.00 47 1021.7
20260502184724 73 69 5.0 14.0 0.00 0.00 0.00 47 1021.8
20260502184225 72 96 5.0 14.0 0.00 0.00 0.00 49 1021.8
20260502183725 72 105 4.0 11.0 0.00 0.00 0.00 47 1021.9
20260502183225 72 78 5.0 11.0 0.00 0.00 0.00 47 1022.0
20260502182725 72 28 5.0 12.0 0.00 0.00 0.00 48 1022.1
20260502182229 71 317 5.0 13.0 0.00 0.00 0.00 48 1022.3
20260502182225 71 51 5.0 12.0 0.00 0.00 0.00 47 1022.0
20260502181224 71 14 6.0 14.0 0.00 0.00 0.00 48 1022.4
20260502180729 70 350 6.0 12.0 0.00 0.00 0.00 49 1022.6
20260502180725 71 315 6.0 14.0 0.00 0.00 0.00 49 1022.4
20260502170223 69 80 8.0 15.0 0.00 0.00 0.00 48 1023.2
20260502164221 69 16 6.0 18.0 0.00 0.00 0.00 51 1023.1
20260502163721 68 67 8.0 18.0 0.00 0.00 0.00 49 1023.1
20260502163221 68 17 8.0 15.0 0.00 0.00 0.00 49 1023.1
20260502162721 68 31 7.0 15.0 0.00 0.00 0.00 47 1023.2
20260502162221 67 27 7.0 18.0 0.00 0.00 0.00 51 1023.2
20260502161725 67 53 7.0 15.0 0.00 0.00 0.00 51 1023.2
20260502161720 67 30 7.0 18.0 0.00 0.00 0.00 49 1023.2
20260502160721 67 11 7.0 14.0 0.00 0.00 0.00 51 1023.1
20260502160219 66 326 7.0 14.0 0.00 0.00 0.00 53 1023.1
20260502152217 64 19 7.0 20.0 0.00 0.00 0.00 57 1022.9
20260502151717 63 22 8.0 20.0 0.00 0.00 0.00 57 1022.9
20260502151217 63 42 7.0 14.0 0.00 0.00 0.00 57 1022.9
20260502150718 63 40 7.0 14.0 0.00 0.00 0.00 59 1022.7
20260502150217 62 48 7.0 14.0 0.00 0.00 0.00 59 1022.7
20260502130444 55 321 5.0 13.0 0.00 0.30 0.00 74 1021.3
20260502123442 53 355 6.0 13.0 0.00 0.49 0.00 78 1020.9
20260502122943 53 287 6.0 13.0 0.00 0.49 0.00 79 1020.8
20260502122440 52 34 6.0 13.0 0.00 0.49 0.00 79 1020.7
20260502121940 52 35 5.0 13.0 0.00 0.50 0.00 80 1020.6
20260502121442 52 329 5.0 12.0 0.00 0.52 0.00 80 1020.5
20260502121438 52 24 5.0 11.0 0.00 0.52 0.00 80 1020.5
20260502120439 52 316 6.0 12.0 0.00 0.52 0.00 81 1020.3
20260502115439 51 319 6.0 11.0 0.00 0.52 0.00 81 1020.3
20260502114939 51 14 5.0 11.0 0.00 0.52 0.00 81 1020.3
20260502114439 51 34 5.0 11.0 0.00 0.52 0.00 81 1020.2
20260502113939 51 11 5.0 11.0 0.00 0.52 0.00 81 1020.2
20260502113439 51 22 4.0 11.0 0.00 0.52 0.00 82 1020.1
20260502112943 51 16 4.0 10.0 0.00 0.52 0.00 82 1020.1
20260502112939 51 12 5.0 10.0 0.00 0.52 0.00 82 1020.1
20260502111939 51 9 3.0 8.0 0.00 0.52 0.00 82 1020.1
20260502111439 51 346 4.0 9.0 0.00 0.52 0.00 82 1020.1
20260502110938 51 331 4.0 9.0 0.00 0.52 0.00 83 1020.0
20260502110438 51 28 4.0 8.0 0.00 0.53 0.00 83 1020.0
20260502105944 51 348 2.0 8.0 0.00 0.54 0.00 84 1019.9
20260502105940 51 343 3.0 8.0 0.00 0.53 0.00 83 1020.1
20260502105543 50 15 2.0 7.0 0.00 0.55 0.00 84 1020.0
20260502104439 50 22 1.0 6.0 0.00 0.60 0.00 84 1020.0
20260502103943 50 28 1.0 4.0 0.00 0.79 0.00 85 1019.9
20260502103939 50 349 1.0 4.0 0.00 0.67 0.00 85 1020.0
20260502102937 50 305 1.0 4.0 0.00 0.84 0.00 85 1019.9
20260502102436 50 313 1.0 4.0 0.00 0.87 0.00 86 1019.9
20260502101936 50 319 1.0 2.0 0.00 0.88 0.00 86 1019.9
20260502101441 50 327 0.0 2.0 0.00 0.90 0.00 86 1019.8
20260502101437 50 312 0.0 2.0 0.00 0.89 0.00 85 1019.8
20260502100437 50 317 0.0 2.0 0.00 0.92 0.00 86 1019.8
20260502091433 51 342 0.0 2.0 0.00 1.39 0.00 83 1019.0
20260502090934 52 22 0.0 2.0 0.00 1.60 0.00 83 1018.9
20260502090930 51 331 0.0 2.0 0.00 1.44 0.00 83 1018.9
20260502071421 53 9 4.0 10.0 0.00 1.99 0.00 82 1017.9
20260502070921 53 17 3.0 10.0 0.00 2.10 0.00 82 1017.9
20260502070420 53 336 4.0 8.0 0.00 2.13 0.00 82 1017.9
20260502065921 53 313 4.0 10.0 0.00 2.13 0.00 82 1018.0
20260502065421 53 9 4.0 10.0 0.00 2.13 0.00 82 1018.0
20260502064920 53 40 4.0 10.0 0.00 2.13 0.00 82 1018.0
20260502064419 53 290 3.0 9.0 0.00 2.13 0.00 82 1018.2
20260502063919 53 342 4.0 11.0 0.00 2.13 0.00 82 1018.3
20260502063418 53 59 4.0 11.0 0.00 2.13 0.00 82 1018.2
20260502062923 53 12 3.0 7.0 0.00 2.13 0.00 81 1018.2
20260502062919 53 336 3.0 11.0 0.00 2.13 0.00 82 1018.2
20260502061919 53 39 5.0 11.0 0.00 2.14 0.00 81 1018.2
20260502061419 54 37 5.0 11.0 0.00 2.16 0.00 81 1018.1
20260502060919 54 337 4.0 10.0 0.00 2.21 0.00 81 1018.0
20260502060423 54 323 4.0 12.0 0.00 2.30 0.00 81 1018.2
20260502060419 54 347 4.0 12.0 0.00 2.29 0.00 81 1018.0
20260502055419 54 86 5.0 11.0 0.00 2.31 0.00 81 1018.3
20260502054919 54 17 6.0 11.0 0.00 2.31 0.00 81 1018.4
20260502054418 54 318 5.0 16.0 0.00 2.31 0.00 81 1018.3
20260502053919 54 327 5.0 16.0 0.00 2.31 0.00 81 1018.3
20260502053422 54 24 6.0 20.0 0.00 2.31 0.00 81 1018.4
20260502053418 54 329 5.0 11.0 0.00 2.31 0.00 81 1018.4
20260502052419 54 38 6.0 20.0 0.00 2.31 0.00 81 1018.2
20260502051924 54 43 7.0 13.0 0.00 2.31 0.00 81 1018.1
20260502051919 54 32 6.0 13.0 0.00 2.31 0.00 81 1018.2
20260502050918 54 12 7.0 14.0 0.00 2.31 0.00 81 1017.8
20260502050417 54 80 8.0 19.0 0.00 2.31 0.00 81 1017.5
20260502045915 54 355 9.0 19.0 0.00 2.31 2.41 81 1017.1
20260502045414 55 36 8.0 25.0 0.00 2.31 2.41 81 1017.0
20260502044915 55 18 8.0 25.0 0.00 2.31 2.41 81 1017.4
20260502044415 55 332 7.0 16.0 0.00 2.31 2.41 80 1017.8
20260502043915 55 82 8.0 13.0 0.00 2.31 2.41 80 1017.9
20260502043415 55 42 7.0 14.0 0.00 2.31 2.41 80 1017.9
20260502042915 55 11 8.0 14.0 0.00 2.31 2.41 80 1017.9
20260502042415 55 38 8.0 16.0 0.00 2.31 2.41 80 1017.8
20260502041915 55 13 8.0 20.0 0.00 2.31 2.41 81 1017.7
20260502041415 55 28 8.0 20.0 0.00 2.31 2.41 81 1017.6
20260502040915 55 344 8.0 16.0 0.00 2.31 2.41 81 1017.6
20260502040413 55 36 9.0 16.0 0.00 2.31 2.41 81 1017.6
20260502035911 55 20 8.0 19.0 0.00 2.31 2.41 81 1017.7
20260502035410 55 338 8.0 19.0 0.00 2.31 2.41 81 1017.7
20260502034911 55 336 8.0 18.0 0.00 2.31 2.41 81 1017.9
20260502034411 55 22 7.0 15.0 0.00 2.31 2.41 81 1017.8
20260502033914 55 34 7.0 20.0 0.00 2.31 2.41 81 1017.7
20260502033909 55 36 7.0 20.0 0.00 2.31 2.41 81 1017.7
20260502032909 55 341 7.0 16.0 0.00 2.31 2.41 81 1017.6
20260502032409 55 16 7.0 16.0 0.00 2.31 2.41 81 1017.5
20260502031908 55 18 8.0 15.0 0.00 2.31 2.41 81 1017.5
20260502031407 55 13 7.0 18.0 0.00 2.31 2.41 81 1017.3
20260502031143 55 53 7.0 14.0 0.00 2.31 2.41 81 1017.0
20260502031139 55 59 7.0 18.0 0.00 2.31 2.41 81 1017.2
20260502031134 55 342 8.0 21.0 0.00 2.31 2.41 81 1017.2
20260502031130 55 38 8.0 21.0 0.00 2.31 2.41 81 1017.0
20260502025407 55 53 7.0 14.0 0.00 2.31 2.41 81 1017.0
20260502024910 55 17 6.0 15.0 0.00 2.31 2.41 81 1016.9
20260502024906 55 34 7.0 15.0 0.00 2.31 2.41 81 1016.7
20260502023905 55 346 8.0 16.0 0.00 2.31 2.41 81 1016.7
20260502023405 55 41 7.0 16.0 0.00 2.31 2.41 81 1016.7
20260502022905 55 348 6.0 13.0 0.00 2.31 2.41 81 1016.8
20260502022405 56 350 7.0 18.0 0.00 2.31 2.41 81 1016.6
20260502021905 56 71 9.0 21.0 0.00 2.31 2.41 80 1016.5
20260502021405 56 43 9.0 21.0 0.00 2.31 2.41 81 1016.5
20260502020905 56 331 7.0 18.0 0.00 2.31 2.41 81 1016.3
20260502020405 56 324 6.0 19.0 0.00 2.31 2.41 82 1016.1
20260502015905 56 32 8.0 19.0 0.00 2.31 2.41 82 1016.1
20260502015405 57 34 9.0 21.0 0.00 2.31 2.41 81 1016.0
20260502014905 57 19 9.0 21.0 0.00 2.31 2.41 81 1015.8
20260502014405 57 25 9.0 18.0 0.00 2.31 2.41 82 1015.6
20260502013904 57 355 9.0 19.0 0.00 2.31 2.41 82 1015.5
20260502013405 57 22 9.0 21.0 0.00 2.31 2.41 82 1015.5
20260502012905 58 28 8.0 21.0 0.00 2.31 2.41 82 1015.5
20260502012409 58 344 7.0 20.0 0.00 2.31 2.41 82 1015.4
20260502012405 58 12 8.0 20.0 0.00 2.31 2.41 82 1015.4
20260502012009 58 341 9.0 22.0 0.00 2.31 2.41 82 1015.2
20260502010905 58 19 10.0 22.0 0.00 2.31 2.41 81 1015.1
20260502010405 58 44 9.0 19.0 0.00 2.31 2.41 82 1015.0
20260502005905 58 14 10.0 22.0 0.00 2.31 2.41 82 1014.9
20260502005405 59 43 10.0 23.0 0.00 2.31 2.41 81 1014.6
20260502004904 59 52 8.0 23.0 0.00 2.31 2.41 81 1014.6
20260502004407 59 22 10.0 18.0 0.00 2.31 2.41 81 1014.3
20260502004403 59 325 8.0 18.0 0.00 2.31 2.41 81 1014.4
20260502004007 59 13 10.0 21.0 0.00 2.31 2.41 81 1014.3
20260502003508 60 22 10.0 21.0 0.00 2.31 2.41 81 1014.3
20260502002403 60 13 9.0 21.0 0.00 2.31 2.41 81 1014.1
20260502001903 60 22 9.0 21.0 0.00 2.31 2.41 81 1014.0
20260502001403 60 19 9.0 21.0 0.00 2.31 2.41 81 1013.9
20260502000903 60 5 8.0 18.0 0.00 2.31 2.41 81 1013.8
20260502000406 60 290 10.0 20.0 0.00 2.31 2.41 81 1013.8
20260502000402 60 344 10.0 20.0 0.00 2.31 2.41 81 1013.8
20260501235401 60 0 10.0 20.0 0.00 2.31 2.41 81 1013.6
20260501234901 60 317 10.0 21.0 0.00 2.31 2.41 80 1013.5
20260501234401 61 24 10.0 21.0 0.00 2.31 2.41 80 1013.3
20260501233900 61 317 10.0 20.0 0.00 2.31 2.41 80 1013.2
20260501233401 61 5 9.0 20.0 0.00 2.31 2.41 80 1013.1
20260501232901 61 15 10.0 22.0 0.00 2.31 2.41 80 1013.1
20260501232401 61 15 11.0 23.0 0.00 2.31 2.41 80 1012.9
20260501231901 62 343 11.0 23.0 0.00 2.31 2.41 80 1012.7
20260501231404 62 310 11.0 23.0 0.00 2.31 2.41 80 1012.7
20260501231400 62 327 12.0 23.0 0.00 2.31 2.41 80 1012.6
20260501230359 62 350 9.0 23.0 0.00 2.31 2.41 80 1012.5
20260501225859 62 16 10.0 24.0 0.00 2.31 2.41 81 1012.4
20260501225359 62 312 9.0 24.0 0.00 2.31 2.41 81 1012.3
20260501224903 62 342 10.0 23.0 0.00 2.31 2.41 81 1012.3
20260501224859 62 336 9.0 23.0 0.00 2.31 2.41 81 1012.5
20260501224503 62 26 11.0 23.0 0.00 2.31 2.41 81 1012.2
20260501224003 62 349 9.0 21.0 0.00 2.31 2.41 80 1012.2
20260501222855 63 55 9.0 23.0 0.00 2.31 2.41 80 1012.2